Skip Page Navigation
NASA JPL Caltech
NASA Logo - Jet Propulsion Laboratory + View the NASA Portal
+ Center for Near-Earth Object Studies
JPL Home Earth Solar System Stars & Galaxies Technology
JPL Solar System Dynamics
BODIES ORBITS EPHEMERIDES TOOLS PHYSICAL DATA DISCOVERY FAQ SITE MAP
JPL Small-Body Database Browser
Search: [ help ]  
(2020 BH6)
Classification: Apollo [NEO]          SPK-ID: 3989147
Ephemeris | Orbit Diagram | Orbital Elements | Mission Design | Physical Parameters | Close-Approach Data ]

[ hide orbit diagram ]

For accurate long-term ephemerides, please instead use our Horizons system.This orbit viewer was implemented using two-body methods, and hence should not be used for determining accurate long-term trajectories (over several years or decades) or planetary encounter circumstances.


Orbital Elements at Epoch 2459396.5 (2021-Jul-01.0) TDB
Reference: JPL 3 (heliocentric ecliptic J2000)
 Element Value Uncertainty (1-sigma)   Units 
e .4650485359052383 0.00011216  
a 1.699942215189725 0.00033507 au
q .9093865768922358 1.1632e-05 au
i 5.01139753620951 0.00043545 deg
node 304.64403187037 0.00010867 deg
peri 219.9643069911446 0.00079302 deg
M 218.612752235807 0.063947 deg
tp 2459714.448957398754
(2022-May-14.94895740)
0.23781 TDB
period 809.5611625063369
2.22
0.23935
0.0006553
d
yr
n .4446853637166445 0.00013147 deg/d
Q 2.490497853487214 0.00049089 au
  Orbit Determination Parameters
   # obs. used (total)      50  
   first obs. used      2020-01-24  
   last obs. used      2020-01-24  
   planetary ephem.      DE441  
   SB-pert. ephem.      SB441-N16  
   condition code      6  
   norm. resid. RMS      .32443  
   source      ORB  
   producer      Otto Matic  
   solution date      2021-Apr-15 22:15:15  

Additional Information
 Earth MOID = .000648583 au 
 Jupiter MOID = 2.50266 au 
 T_jup = 4.069 
[ show covariance matrix ]

Ephemeris | Orbit Diagram | Orbital Elements | Mission Design | Physical Parameters | Close-Approach Data ]

Physical Parameter Table
Parameter Symbol Value Units Sigma Reference Notes
absolute magnitude H 28.6   .5759 MPO545162 autocmod 2.8

[ show close-approach data ]
Ephemeris | Orbit Diagram | Orbital Elements | Mission Design | Physical Parameters | Close-Approach Data ]
ABOUT SSD CREDITS/AWARDS PRIVACY/COPYRIGHT GLOSSARY LINKS
FirstGov 2021-Jul-25 17:25 UT
(server date/time)  
NASA Home Page
Site Manager:   Ryan S. Park
Webmaster  Alan B. Chamberlin